Location: ???? ?????????
(31.1304°N, 31.7111°E)
Time: 18:12:51
(UTC+00:00)

Cosmos 2219 - Pass Details

Date: 29 October 2020
Orbit: 832 x 862 km, 71.1° (Epoch: 29 November)

Event Time Altitude Azimuth Distance (km) Brightness Sun altitude
Rises 16:26:11 0° 336° (NNW) 3,441 6.6 -17.5°
Reaches altitude 10° 16:28:40 10° 334° (NNW) 2,501 5.9 -18.0°
Maximum altitude 16:34:22 68° 253° (WSW) 923 3.6 -19.2°
Drops below altitude 10° 16:40:02 10° 171° (S) 2,482 5.6 -20.4°
Sets 16:42:29 0° 169° (SSE) 3,412 6.3 -21.0°
